Date,TemperatureHighF,TemperatureAvgF,TemperatureLowF,DewpointHighF,DewpointAvgF,DewpointLowF,HumidityHigh,HumidityAvg,HumidityLow,PressureMaxIn,PressureMinIn,WindSpeedMaxMPH,WindSpeedAvgMPH,GustSpeedMaxMPH,PrecipitationSumIn
2012-1-1,37.0,23.6,14.0,-4.0,-7.8,-17.0,44,26,9,0.00,40.00,10,6,16,0.00
2012-1-2,46.0,34.3,23.0,11.0,6.8,-4.0,50,32,22,0.00,40.00,8,4,12,0.00
2012-1-3,41.0,33.5,27.0,13.0,10.7,8.0,49,39,29,0.00,40.00,14,6,22,0.00
2012-1-4,43.0,31.1,22.0,11.0,6.5,-2.0,52,36,20,0.00,40.00,12,6,16,0.00
2012-1-5,46.0,34.1,26.0,13.0,8.4,4.0,50,34,26,0.00,40.00,12,4,17,0.00
2012-1-6,42.0,32.6,27.0,15.0,12.3,10.0,55,43,30,0.00,40.00,10,5,17,0.00
2012-1-7,33.0,26.9,22.0,27.0,21.7,10.0,100,83,40,0.00,40.00,15,7,26,0.00
2012-1-8,32.0,20.9,15.0,27.0,17.2,9.0,96,86,67,0.00,40.00,12,4,18,0.00
2012-1-9,34.0,23.9,12.0,17.0,13.0,7.0,81,64,41,0.00,40.00,6,2,10,0.00
2012-1-10,39.0,27.6,21.0,22.0,19.2,17.0,92,72,51,0.00,40.00,8,3,15,0.00
2012-1-11,26.0,18.9,10.0,22.0,9.1,-7.0,96,67,42,0.00,40.00,22,10,36,0.00
2012-1-12,29.0,12.3,2.0,-2.0,-6.5,-9.0,62,44,21,0.00,40.00,12,7,17,0.00
2012-1-13,31.0,18.6,9.0,2.0,-2.8,-6.0,53,40,24,0.00,40.00,11,6,19,0.00
2012-1-14,38.0,26.8,16.0,9.0,3.9,0.0,51,38,25,0.00,40.00,9,5,14,0.00
2012-1-15,47.0,31.3,24.0,11.0,4.8,-1.0,45,34,14,0.00,40.00,15,6,31,0.00
2012-1-16,33.0,25.2,9.0,28.0,20.4,3.0,99,83,55,0.00,40.00,28,10,45,0.00
2012-1-17,18.0,9.8,0.0,3.0,-4.2,-7.0,82,54,38,0.00,40.00,16,7,27,0.00
2012-1-18,36.0,26.6,15.0,16.0,8.4,-2.0,58,46,32,0.00,40.00,18,10,41,0.00
2012-1-19,51.0,39.0,31.0,26.0,22.0,17.0,63,51,37,0.00,40.00,19,12,36,0.00
2012-1-20,40.0,35.3,27.0,26.0,19.9,14.0,74,54,44,0.00,40.00,17,10,33,0.00
2012-1-21,37.0,31.0,25.0,33.0,22.3,13.0,100,73,43,0.00,40.00,15,6,24,0.00
2012-1-22,30.0,23.4,16.0,29.0,19.7,11.0,100,87,61,0.00,40.00,23,9,38,0.00
2012-1-23,36.0,24.1,13.0,22.0,14.7,9.0,85,68,47,0.00,40.00,10,4,15,0.00
2012-1-24,32.0,24.4,21.0,28.0,21.6,17.0,98,89,76,0.00,40.00,14,6,19,0.00
2012-1-25,36.0,23.4,13.0,18.0,13.8,7.0,94,68,33,0.00,40.00,12,4,21,0.00
2012-1-26,43.0,27.6,20.0,28.0,20.6,15.0,99,76,38,0.00,40.00,22,7,33,0.00
2012-1-27,29.0,23.0,12.0,27.0,13.2,-4.0,99,69,36,0.00,40.00,19,9,30,0.00
2012-1-28,36.0,17.6,7.0,5.0,-0.1,-4.0,66,48,18,0.00,40.00,11,6,18,0.00
2012-1-29,43.0,24.5,14.0,12.0,7.0,2.0,61,48,27,0.00,40.00,13,6,17,0.00
2012-1-30,38.0,27.9,22.0,16.0,13.4,10.0,73,55,37,0.00,40.00,13,5,20,0.00
2012-1-31,42.0,29.6,20.0,13.0,9.7,3.0,65,45,26,0.00,40.00,12,6,19,0.00
2012-2-1,39.0,28.1,19.0,10.0,8.6,6.0,62,44,28,0.00,40.00,14,5,26,0.00
2012-2-2,35.0,28.3,25.0,22.0,12.7,6.0,82,52,39,0.00,40.00,14,7,23,0.00
2012-2-3,32.0,23.2,18.0,19.0,15.8,9.0,91,75,48,0.00,40.00,12,5,18,0.00
2012-2-4,33.0,21.3,13.0,10.0,6.3,1.0,83,56,29,0.00,40.00,8,4,14,0.00
2012-2-5,34.0,24.9,14.0,9.0,6.3,4.0,65,46,31,0.00,40.00,9,4,13,0.00
2012-2-6,29.0,21.1,17.0,20.0,12.7,7.0,96,70,48,0.00,40.00,10,5,16,0.00
2012-2-7,34.0,22.4,11.0,19.0,11.5,7.0,97,67,34,0.00,40.00,8,4,11,0.00
2012-2-8,33.0,23.4,16.0,24.0,11.2,1.0,98,63,34,0.00,40.00,10,6,16,0.00
2012-2-9,34.0,25.4,21.0,28.0,21.8,18.0,97,88,55,0.00,40.00,14,5,25,0.00
2012-2-10,39.0,25.1,16.0,25.0,19.1,11.0,99,80,38,0.00,40.00,10,5,19,0.00
2012-2-11,52.0,31.8,26.0,26.0,20.6,14.0,98,67,29,0.00,40.00,12,4,16,0.05
2012-2-12,39.0,31.4,24.0,27.0,21.8,15.0,99,69,52,0.00,40.00,15,6,30,0.01
2012-2-13,32.0,25.8,23.0,29.0,24.8,22.0,98,96,85,0.00,40.00,10,4,21,0.00
2012-2-14,39.0,26.6,21.0,27.0,23.2,20.0,98,89,50,0.00,40.00,12,5,28,0.01
2012-2-15,33.0,24.7,18.0,21.0,18.1,13.0,96,77,55,0.00,40.00,10,5,15,0.01
2012-2-16,36.0,26.1,19.0,20.0,15.9,11.0,95,67,43,0.00,40.00,12,5,21,0.00
2012-2-17,40.0,25.0,14.0,16.0,10.5,5.0,74,56,29,0.00,40.00,15,8,25,0.00
2012-2-18,39.0,25.7,13.0,14.0,9.8,0.0,91,55,27,0.00,40.00,11,6,17,0.00
2012-2-19,38.0,27.1,15.0,22.0,11.0,-3.0,95,54,29,0.00,40.00,22,7,36,0.00
2012-2-20,28.0,16.9,11.0,15.0,7.2,-2.0,92,69,28,0.00,40.00,14,7,23,0.00
2012-2-21,31.0,22.5,14.0,20.0,15.9,8.0,92,77,56,0.00,40.00,10,4,24,0.00
2012-2-22,39.0,34.0,27.0,25.0,22.5,19.0,82,63,50,0.00,40.00,20,8,35,0.04
2012-2-23,37.0,22.8,13.0,28.0,11.9,-2.0,98,65,33,0.00,40.00,31,15,74,0.01
2012-2-24,39.0,21.7,6.0,6.0,0.6,-4.0,71,44,17,0.00,40.00,9,5,14,0.01
2012-2-25,47.0,31.0,18.0,9.0,4.9,-12.0,61,37,14,0.00,40.00,19,11,46,0.00
2012-2-26,35.0,20.2,15.0,5.0,-3.8,-11.0,54,36,16,0.00,40.00,15,8,30,0.00
2012-2-27,47.0,32.0,14.0,24.0,6.3,-15.0,66,35,22,0.00,40.00,15,6,29,0.00
2012-2-28,33.0,26.8,21.0,29.0,24.3,19.0,100,90,68,0.00,40.00,19,9,39,0.00
2012-2-29,41.0,25.6,16.0,19.0,14.0,8.0,95,64,36,0.00,40.00,13,6,29,0.00
2012-3-1,29.0,21.7,14.0,23.0,18.5,10.0,97,88,54,0.00,40.00,22,10,37,0.00
2012-3-2,28.0,14.1,10.0,19.0,7.5,0.0,93,76,49,0.00,40.00,20,7,35,0.00
2012-3-3,27.0,16.8,6.0,15.0,8.6,0.0,87,70,53,0.00,40.00,8,3,12,0.00
2012-3-4,48.0,27.4,17.0,19.0,15.7,12.0,82,64,29,0.00,40.00,10,5,14,0.23
2012-3-5,46.0,34.5,22.0,16.0,11.1,3.0,64,40,22,0.00,40.00,13,9,24,0.04
2012-3-6,55.0,40.5,33.0,10.0,5.3,-4.0,34,24,10,0.00,40.00,27,11,47,0.02
2012-3-7,43.0,35.2,27.0,25.0,16.0,5.0,86,50,25,0.00,40.00,25,10,46,0.00
2012-3-8,44.0,32.7,22.0,23.0,13.7,5.0,89,51,20,0.00,40.00,15,7,22,0.00
2012-3-9,48.0,36.1,22.0,11.0,8.5,5.0,56,34,17,0.00,40.00,10,6,16,0.00
2012-3-10,50.0,38.2,28.0,14.0,7.1,-99.9,37,29,20,0.00,40.00,11,7,18,0.00
2012-3-11,49.0,37.6,29.0,16.0,12.4,4.0,55,37,18,0.00,40.00,15,6,25,0.00
2012-3-12,54.0,42.6,35.0,11.0,8.7,6.0,33,25,16,0.00,40.00,18,10,32,0.00
2012-3-13,57.0,42.7,36.0,9.0,6.1,-3.0,30,23,12,0.00,40.00,21,8,37,0.00
2012-3-14,58.0,49.4,39.0,4.0,-3.4,-9.0,17,11,6,0.00,40.00,21,10,40,0.00
2012-3-15,60.0,44.4,33.0,19.0,9.6,-4.0,41,25,14,0.00,40.00,13,8,23,0.00
2012-3-16,60.0,46.5,37.0,19.0,12.5,6.0,47,28,12,0.00,40.00,17,9,34,0.00
2012-3-17,63.0,48.5,38.0,13.0,9.2,7.0,29,21,11,0.00,40.00,15,7,32,0.00
2012-3-18,47.0,37.7,22.0,32.0,17.1,8.0,97,48,24,0.00,40.00,28,15,48,0.00
2012-3-19,31.0,22.9,18.0,18.0,11.6,5.0,91,63,45,0.00,40.00,24,10,37,0.00
2012-3-20,40.0,25.7,14.0,18.0,9.8,-99.9,97,60,27,0.00,40.00,10,5,19,0.00
2012-3-21,45.0,31.0,25.0,20.0,11.1,8.0,51,44,30,0.00,40.00,7,3,19,0.00
2012-3-22,56.0,42.0,30.0,23.0,5.8,-99.9,66,30,18,0.00,40.00,12,-92,19,0.00
2012-3-23,68.0,47.6,33.0,19.0,13.3,2.0,49,28,8,0.00,40.00,13,8,36,0.00
2012-3-24,67.0,51.6,37.0,18.0,12.5,4.0,38,23,9,0.00,40.00,13,6,21,0.00
2012-3-25,69.0,52.2,40.0,18.0,13.8,8.0,38,23,10,0.00,40.00,12,5,19,0.00
2012-3-26,58.0,46.5,34.0,16.0,10.3,3.0,32,24,12,0.00,40.00,26,14,57,0.00
2012-3-27,57.0,42.7,32.0,14.0,10.7,1.0,41,28,10,0.00,40.00,13,7,35,0.00
2012-3-28,62.0,45.5,35.0,13.0,9.3,0.0,37,24,10,0.00,40.00,18,8,37,0.00
2012-3-29,62.0,48.2,34.0,26.0,15.1,0.0,70,29,14,0.00,40.00,16,8,25,0.00
2012-3-30,63.0,49.5,37.0,22.0,18.4,14.0,44,30,17,0.00,40.00,15,7,23,0.00
2012-3-31,68.0,47.7,39.0,25.0,19.3,6.0,50,36,10,0.00,40.00,17,8,31,0.00
2012-4-1,68.0,50.6,43.0,18.0,13.3,4.0,35,24,8,0.00,40.00,19,10,45,0.00
2012-4-2,49.0,35.8,30.0,29.0,25.8,23.0,86,68,41,0.00,40.00,19,10,27,0.00
2012-4-3,55.0,38.4,28.0,27.0,22.7,18.0,78,57,24,0.00,40.00,13,6,26,0.00
2012-4-4,61.0,44.1,30.0,27.0,22.0,11.0,76,47,14,0.00,40.00,12,6,24,0.00
2012-4-5,64.0,47.9,35.0,21.0,10.6,-10.0,41,25,5,0.00,40.00,20,9,40,0.00
2012-4-6,55.0,42.7,29.0,17.0,6.7,-10.0,37,24,8,0.00,40.00,29,13,61,0.00
2012-4-7,57.0,36.3,21.0,6.0,1.0,-12.0,47,27,9,0.00,40.00,16,8,25,0.00
2012-4-8,64.0,44.8,29.0,5.0,-1.3,-11.0,31,17,5,0.00,40.00,18,10,28,0.00
2012-4-9,68.0,47.5,36.0,10.0,6.0,-4.0,30,20,6,0.00,40.00,16,8,30,0.00
2012-4-10,70.0,50.4,38.0,14.0,9.4,3.0,31,21,7,0.00,40.00,13,9,25,0.00
2012-4-11,68.0,53.1,44.0,34.0,22.4,15.0,51,31,14,0.00,40.00,22,12,56,0.00
2012-4-12,50.0,39.0,29.0,29.0,20.5,13.0,99,51,27,0.00,40.00,23,13,41,0.01
2012-4-13,49.0,36.3,27.0,29.0,19.8,5.0,99,59,17,0.00,40.00,12,5,25,0.00
2012-4-14,44.0,33.9,27.0,29.0,24.3,17.0,99,71,36,0.00,40.00,17,6,30,0.00
2012-4-15,40.0,30.2,25.0,33.0,26.8,21.0,99,88,48,0.00,40.00,16,8,29,0.23
2012-4-16,44.0,34.1,27.0,31.0,25.4,18.0,100,74,40,0.00,40.00,14,4,21,0.10
2012-4-17,56.0,40.7,28.0,25.0,20.8,16.0,72,48,21,0.00,40.00,16,9,25,0.01
2012-4-18,61.0,45.2,33.0,34.0,22.9,17.0,89,45,19,0.00,40.00,16,10,40,0.11
2012-4-19,53.0,39.2,32.0,39.0,34.0,30.0,100,84,46,0.00,40.00,16,6,29,0.29
2012-4-20,60.0,46.4,32.0,33.0,28.9,26.0,86,55,30,0.00,40.00,11,6,26,0.01
2012-4-21,67.0,52.7,38.0,29.0,24.1,19.0,63,37,17,0.00,40.00,11,6,23,0.00
2012-4-22,74.0,56.4,41.0,27.0,20.9,13.0,51,29,12,0.00,40.00,14,9,28,0.00
2012-4-23,78.0,58.9,42.0,28.0,19.7,12.0,43,25,9,0.00,40.00,12,9,25,0.00
2012-4-24,77.0,58.2,45.0,27.0,18.4,6.0,38,24,10,0.00,40.00,15,9,26,0.00
2012-4-25,75.0,57.6,47.0,35.0,17.9,6.0,53,23,12,0.00,40.00,21,8,35,0.00
2012-4-26,70.0,53.1,41.0,40.0,32.0,23.0,98,50,20,0.00,40.00,22,7,35,0.12
2012-4-27,51.0,42.0,32.0,38.0,27.0,12.0,99,61,25,0.00,40.00,23,13,38,0.20
2012-4-28,52.0,39.0,28.0,18.0,12.4,5.0,54,35,19,0.00,40.00,22,10,33,0.01
2012-4-29,58.0,42.7,30.0,18.0,10.7,-2.0,49,29,12,0.00,40.00,13,7,31,0.00
2012-4-30,66.0,48.8,32.0,18.0,11.0,6.0,39,23,12,0.00,40.00,13,8,31,0.00
2012-5-1,62.0,53.6,47.0,31.0,19.6,6.0,53,27,15,0.00,40.00,15,10,36,0.00
2012-5-2,65.0,53.3,46.0,35.0,26.0,21.0,60,36,22,0.00,40.00,17,8,36,0.00
2012-5-3,70.0,55.5,40.0,34.0,22.7,13.0,67,34,13,0.00,40.00,20,10,33,0.00
2012-5-4,71.0,60.1,50.0,24.0,12.8,5.0,28,17,8,0.00,40.00,16,10,35,0.00
2012-5-5,70.0,58.4,44.0,18.0,12.7,7.0,29,17,9,0.00,40.00,21,10,37,0.00
2012-5-6,63.0,47.8,34.0,24.0,18.3,13.0,52,32,18,0.00,40.00,19,11,33,0.00
2012-5-7,51.0,40.3,35.0,37.0,30.2,23.0,100,71,36,0.00,40.00,18,6,25,0.12
2012-5-8,65.0,47.1,32.0,38.0,27.2,13.0,100,57,13,0.00,40.00,10,6,21,0.01
2012-5-9,70.0,54.8,36.0,23.0,17.8,3.0,50,28,11,0.00,40.00,13,8,23,0.00
2012-5-10,75.0,57.3,41.0,25.0,16.6,11.0,35,22,11,0.00,40.00,16,8,30,0.00
2012-5-11,66.0,50.1,42.0,37.0,28.8,21.0,79,45,25,0.00,40.00,24,6,38,0.00
2012-5-12,68.0,49.3,36.0,37.0,27.5,-99.9,89,53,10,0.00,40.00,10,5,27,0.00
2012-5-13,61.0,49.3,38.0,28.0,19.7,14.0,50,32,22,0.00,40.00,23,8,34,0.00
2012-5-14,70.0,52.3,35.0,24.0,15.4,-1.0,59,30,6,0.00,40.00,12,6,21,0.00
2012-5-15,78.0,58.7,42.0,25.0,15.0,9.0,35,20,9,0.00,40.00,14,6,35,0.00
2012-5-16,72.0,56.6,47.0,32.0,26.3,17.0,49,32,12,0.00,40.00,15,8,47,0.00
2012-5-17,71.0,55.4,39.0,36.0,29.7,20.0,83,44,15,0.00,40.00,12,7,47,0.00
2012-5-18,70.0,56.2,46.0,34.0,21.9,8.0,62,29,12,0.00,40.00,20,12,70,0.00
2012-5-19,58.0,45.2,33.0,42.0,34.7,30.0,98,72,36,0.00,40.00,13,6,25,0.17
2012-5-20,69.0,53.6,37.0,32.0,27.8,21.0,76,43,17,0.00,40.00,12,5,24,0.01
2012-5-21,78.0,61.5,42.0,31.0,24.7,17.0,50,28,12,0.00,40.00,12,8,24,0.00
2012-5-22,77.0,62.3,49.0,26.0,20.0,12.0,36,22,10,0.00,40.00,19,12,34,0.00
2012-5-23,66.0,51.5,33.0,38.0,27.4,14.0,98,49,13,0.00,40.00,21,13,40,0.39
2012-5-24,57.0,44.6,33.0,34.0,22.4,8.0,100,49,17,0.00,40.00,17,9,32,0.39
2012-5-25,72.0,60.3,43.0,30.0,22.1,15.0,35,24,16,0.00,40.00,29,12,45,0.00
2012-5-26,74.0,61.4,45.0,29.0,17.8,-3.0,32,19,11,0.00,40.00,29,19,50,0.00
2012-5-27,54.0,45.2,38.0,18.0,9.2,-3.0,32,23,14,0.00,40.00,20,12,40,0.00
2012-5-28,64.0,48.9,35.0,25.0,19.3,13.0,52,33,18,0.00,40.00,15,7,24,0.00
2012-5-29,71.0,55.7,38.0,25.0,18.5,12.0,42,25,13,0.00,40.00,13,9,31,0.00
2012-5-30,71.0,58.7,42.0,27.0,19.2,12.0,34,22,14,0.00,40.00,21,10,33,0.00
2012-5-31,72.0,60.4,45.0,34.0,28.2,20.0,42,30,22,0.00,40.00,15,7,29,0.00
2012-6-1,76.0,61.1,51.0,35.0,31.6,29.0,46,34,22,0.00,40.00,11,7,23,0.00
2012-6-2,74.0,59.7,51.0,42.0,35.1,31.0,54,40,25,0.00,40.00,15,8,45,0.00
2012-6-3,80.0,64.1,50.0,41.0,34.6,27.0,60,37,17,0.00,40.00,15,7,23,0.00
2012-6-4,81.0,65.0,53.0,41.0,33.1,28.0,46,32,17,0.00,40.00,15,8,29,0.01
2012-6-5,79.0,64.6,52.0,41.0,31.4,14.0,50,33,11,0.00,40.00,17,9,36,0.01
2012-6-6,76.0,63.6,47.0,34.0,23.0,15.0,40,23,11,0.00,40.00,21,10,32,0.00
2012-6-7,76.0,62.4,49.0,33.0,22.0,17.0,35,22,12,0.00,40.00,18,8,33,0.00
2012-6-8,80.0,62.1,49.0,29.0,20.8,14.0,31,22,11,0.00,40.00,24,10,42,0.00
2012-6-9,77.0,69.7,60.0,23.0,18.7,14.0,21,14,11,0.00,40.00,22,12,40,0.00
2012-6-10,66.0,52.8,40.0,25.0,18.8,-7.0,46,29,6,0.00,40.00,21,11,33,0.00
2012-6-11,73.0,56.4,38.0,21.0,11.8,0.0,28,18,10,0.00,40.00,12,5,22,0.00
2012-6-12,76.0,59.9,44.0,26.0,15.9,8.0,29,19,10,0.00,40.00,19,9,35,0.00
2012-6-13,80.0,65.8,49.0,26.0,14.8,11.0,22,15,8,0.00,40.00,14,10,30,0.00
2012-6-14,84.0,66.0,50.0,31.0,18.0,12.0,23,17,8,0.00,40.00,10,6,21,0.00
2012-6-15,82.0,67.5,55.0,33.0,19.3,11.0,26,17,7,0.00,40.00,17,8,31,0.00
2012-6-16,80.0,64.3,52.0,37.0,28.8,24.0,39,28,14,0.00,40.00,18,8,29,0.00
2012-6-17,81.0,66.9,51.0,37.0,27.1,19.0,39,25,13,0.00,40.00,19,10,35,0.00
2012-6-18,81.0,73.3,60.0,30.0,18.9,12.0,22,13,9,0.00,40.00,17,10,31,0.00
2012-6-19,81.0,72.0,58.0,24.0,18.2,11.0,18,13,9,0.00,40.00,15,8,28,0.00
2012-6-20,76.0,65.9,53.0,22.0,19.6,15.0,27,18,13,0.00,40.00,23,12,34,0.00
2012-6-21,85.0,69.4,51.0,33.0,16.3,-99.9,34,19,10,0.00,40.00,13,7,25,0.00
2012-6-22,85.0,64.4,59.0,34.0,9.3,-99.9,28,14,9,0.00,40.00,20,12,41,0.00
2012-6-23,84.0,59.6,64.0,24.0,-1.2,-99.9,17,12,10,0.00,40.00,17,-72,40,0.00
2012-6-24,89.0,69.2,61.0,38.0,26.3,-99.9,34,22,15,0.00,40.00,12,8,23,0.00
2012-6-25,89.0,72.1,59.0,43.0,32.7,24.0,40,26,10,0.00,40.00,13,6,24,0.00
2012-6-26,84.0,73.8,61.0,41.0,34.6,27.0,31,24,19,0.00,40.00,14,10,30,0.00
2012-6-27,82.0,65.3,59.0,48.0,34.4,-99.9,59,37,22,0.00,40.00,18,9,38,0.02
2012-6-28,84.0,62.9,58.0,50.0,36.0,-99.9,76,44,26,0.00,40.00,23,11,34,0.23
2012-6-29,85.0,66.7,53.0,49.0,39.9,30.0,66,42,15,0.00,40.00,17,10,32,0.22
2012-6-30,88.0,72.7,56.0,40.0,31.5,25.0,37,24,11,0.00,40.00,15,9,23,0.00
2012-7-1,91.0,73.5,59.0,39.0,29.4,20.0,31,21,8,0.00,40.00,15,8,23,0.00
2012-7-2,88.0,71.2,60.0,45.0,36.1,29.0,51,29,15,0.00,40.00,18,8,34,0.00
2012-7-3,85.0,63.8,56.0,45.0,35.2,-99.9,62,42,18,0.00,40.00,19,-39,30,0.00
2012-7-4,86.0,63.6,54.0,53.0,43.4,32.0,94,54,17,0.00,40.00,24,9,29,0.09
2012-7-5,79.0,58.5,54.0,56.0,44.5,-99.9,89,69,36,0.00,40.00,19,7,33,0.08
2012-7-6,77.0,59.0,50.0,53.0,50.1,44.0,99,76,31,0.00,40.00,19,8,31,0.31
2012-7-7,74.0,55.1,52.0,57.0,46.6,-99.9,99,81,40,0.00,40.00,14,6,25,0.08
2012-7-8,78.0,61.0,51.0,53.0,49.5,45.0,98,70,32,0.00,40.00,14,6,23,0.02
2012-7-9,86.0,63.2,53.0,50.0,38.5,-99.9,79,49,19,0.00,40.00,12,-30,24,0.01
2012-7-10,85.0,68.1,54.0,45.0,38.3,29.0,58,37,14,0.00,40.00,13,7,25,0.00
2012-7-11,86.0,67.5,57.0,43.0,33.1,-99.9,50,36,19,0.00,40.00,18,9,26,0.01
2012-7-12,85.0,68.0,54.0,46.0,39.6,34.0,57,38,18,0.00,40.00,14,7,29,0.01
2012-7-13,85.0,68.7,57.0,44.0,34.1,-99.9,49,34,17,0.00,40.00,14,7,26,0.00
2012-7-14,81.0,60.9,52.0,52.0,39.6,-99.9,98,54,26,0.00,40.00,22,-32,32,0.08
2012-7-15,76.0,55.4,50.0,53.0,41.1,-99.9,96,70,35,0.00,40.00,14,6,33,0.10
2012-7-16,74.0,58.5,52.0,53.0,37.6,-99.9,93,68,39,0.00,40.00,18,7,29,0.04
2012-7-17,79.0,62.2,48.0,51.0,45.8,38.0,97,62,26,0.00,40.00,15,6,22,0.02
2012-7-18,84.0,64.5,54.0,46.0,36.4,-99.9,60,40,22,0.00,40.00,12,-28,28,0.01
2012-7-19,88.0,65.4,55.0,49.0,44.0,39.0,65,49,20,0.00,40.00,34,8,49,0.23
2012-7-20,91.0,66.9,55.0,50.0,45.7,42.0,64,49,22,0.00,40.00,26,9,39,0.24
2012-7-21,84.0,65.8,55.0,49.0,44.6,38.0,64,49,25,0.00,40.00,18,7,36,0.03
2012-7-22,81.0,60.7,54.0,50.0,32.4,-99.9,74,51,32,0.00,40.00,16,7,26,0.06
2012-7-23,86.0,61.8,55.0,51.0,40.8,-99.9,77,54,24,0.00,40.00,16,-35,49,0.33
2012-7-24,78.0,62.1,52.0,53.0,47.9,41.0,98,62,38,0.00,40.00,29,8,43,0.89
2012-7-25,78.0,63.4,52.0,56.0,42.0,-99.9,99,65,26,0.00,40.00,14,7,25,0.90
2012-7-26,82.0,68.1,53.0,49.0,39.3,31.0,60,37,22,0.00,40.00,14,8,22,0.01
2012-7-27,79.0,64.4,54.0,53.0,44.3,34.0,94,52,29,0.00,40.00,19,8,34,0.02
2012-7-28,79.0,60.6,52.0,53.0,49.6,47.0,93,69,37,0.00,40.00,16,8,25,0.02
2012-7-29,78.0,64.0,56.0,53.0,50.7,48.0,78,64,42,0.00,40.00,20,8,30,0.00
2012-7-30,77.0,63.3,54.0,60.0,51.7,46.0,83,67,46,0.00,40.00,15,6,34,0.10
2012-7-31,81.0,65.2,54.0,55.0,48.3,42.0,81,58,30,0.00,40.00,15,9,23,0.17
2012-8-1,69.0,58.2,50.0,53.0,49.7,47.0,96,75,49,0.00,40.00,21,10,31,0.16
2012-8-2,79.0,62.4,58.0,53.0,37.7,-99.9,70,46,31,0.00,40.00,24,9,36,0.00
2012-8-3,82.0,62.1,51.0,46.0,30.1,-99.9,60,36,18,0.00,40.00,23,-38,30,0.00
2012-8-4,80.0,63.9,53.0,39.0,23.9,-99.9,44,26,13,0.00,40.00,17,-42,30,0.00
2012-8-5,86.0,70.0,55.0,41.0,33.7,28.0,45,28,14,0.00,40.00,13,8,26,0.00
2012-8-6,82.0,60.7,52.0,52.0,36.2,-99.9,99,48,25,0.00,40.00,17,-33,30,0.11
2012-8-7,82.0,64.4,50.0,53.0,44.0,26.0,94,57,19,0.00,40.00,14,6,23,0.10
2012-8-8,86.0,63.0,55.0,44.0,24.4,-99.9,53,30,14,0.00,40.00,12,-72,21,0.00
2012-8-9,88.0,71.1,60.0,45.0,36.6,31.0,48,29,16,0.00,40.00,18,8,32,0.01
2012-8-10,83.0,66.3,55.0,49.0,43.1,39.0,81,45,24,0.00,40.00,19,8,31,0.17
2012-8-11,78.0,61.8,51.0,52.0,46.7,39.0,95,62,32,0.00,40.00,26,10,47,0.15
2012-8-12,84.0,60.4,52.0,46.0,27.1,-99.9,61,37,15,0.00,40.00,12,-32,21,0.01
2012-8-13,63.0,55.3,49.0,54.0,44.9,34.0,98,73,35,0.00,40.00,14,8,21,0.18
2012-8-14,74.0,57.9,46.0,54.0,46.2,39.0,98,70,35,0.00,40.00,12,6,18,0.02
2012-8-15,81.0,58.9,50.0,46.0,33.9,-99.9,69,46,20,0.00,40.00,13,7,19,0.00
2012-8-16,82.0,65.5,54.0,42.0,35.8,32.0,50,36,17,0.00,40.00,19,9,24,0.00
2012-8-17,84.0,65.2,55.0,43.0,37.0,33.0,58,37,17,0.00,40.00,25,8,37,0.00
2012-8-18,82.0,65.2,50.0,44.0,34.2,20.0,66,38,12,0.00,40.00,15,9,24,0.00
2012-8-19,84.0,66.0,50.0,33.0,26.3,20.0,36,24,13,0.00,40.00,12,7,21,0.00
2012-8-20,71.0,62.0,56.0,43.0,33.5,27.0,54,35,27,0.00,40.00,10,5,15,0.00
2012-8-21,83.0,64.2,50.0,43.0,36.4,30.0,64,41,16,0.00,40.00,12,6,20,0.00
2012-8-22,71.0,62.4,57.0,50.0,42.1,32.0,70,48,35,0.00,40.00,15,7,23,0.00
2012-8-23,74.0,58.2,51.0,54.0,49.9,47.0,99,75,44,0.00,40.00,17,6,23,0.20
2012-8-24,74.0,56.7,50.0,54.0,50.1,45.0,99,81,38,0.00,40.00,10,5,24,0.19
2012-8-25,78.0,62.4,47.0,47.0,35.8,20.0,83,47,13,0.00,40.00,12,8,21,0.02
2012-8-26,82.0,61.9,51.0,38.0,26.7,-99.9,48,30,20,0.00,40.00,11,7,20,0.00
2012-8-27,84.0,59.8,58.0,45.0,27.9,-99.9,57,36,23,0.00,40.00,17,-30,30,0.00
2012-8-28,84.0,63.4,57.0,48.0,38.0,-99.9,72,45,21,0.00,40.00,18,-29,27,0.00
2012-8-29,82.0,65.2,53.0,47.0,42.6,39.0,72,48,22,0.00,40.00,20,10,32,0.01
2012-8-30,82.0,64.5,58.0,45.0,42.8,40.0,58,46,24,0.00,40.00,19,10,28,0.01
2012-8-31,83.0,63.2,55.0,46.0,42.2,38.0,60,47,24,0.00,40.00,20,6,33,0.00
2012-9-1,79.0,63.4,52.0,45.0,42.3,38.0,69,49,23,0.00,40.00,15,7,28,0.00
2012-9-2,73.0,59.9,52.0,49.0,43.7,40.0,72,56,37,0.00,40.00,19,8,31,0.04
2012-9-3,77.0,63.0,52.0,45.0,40.1,35.0,65,45,26,0.00,40.00,15,6,27,0.05
2012-9-4,77.0,59.0,50.0,37.0,23.1,-99.9,50,30,10,0.00,40.00,18,9,32,0.01
2012-9-5,77.0,62.4,48.0,27.0,19.7,11.0,36,21,9,0.00,40.00,19,8,35,0.00
2012-9-6,82.0,62.5,48.0,27.0,21.1,15.0,28,21,10,0.00,40.00,16,8,24,0.00
2012-9-7,71.0,58.2,47.0,50.0,34.2,-99.9,99,56,23,0.00,40.00,14,8,27,0.29
2012-9-8,75.0,60.9,44.0,36.0,27.5,15.0,53,31,13,0.00,40.00,14,6,20,0.11
2012-9-9,77.0,57.6,48.0,38.0,19.3,-99.9,53,29,17,0.00,40.00,13,-35,23,0.00
2012-9-10,76.0,63.8,51.0,40.0,32.3,28.0,46,32,21,0.00,40.00,11,7,24,0.00
2012-9-11,70.0,56.6,48.0,50.0,39.2,31.0,99,56,35,0.00,40.00,16,7,32,0.49
2012-9-12,65.0,53.6,47.0,52.0,42.5,23.0,98,72,28,0.00,40.00,11,5,24,0.40
2012-9-13,68.0,55.3,41.0,34.0,26.0,18.0,62,36,16,0.00,40.00,18,8,25,0.00
2012-9-14,73.0,59.0,44.0,32.0,23.4,15.0,42,27,11,0.00,40.00,11,6,18,0.00
2012-9-15,75.0,59.8,44.0,31.0,22.2,16.0,42,25,13,0.00,40.00,11,7,18,0.00
2012-9-16,73.0,59.9,45.0,28.0,19.8,15.0,36,23,11,0.00,40.00,17,9,31,0.00
2012-9-17,65.0,53.3,44.0,38.0,26.4,18.0,73,38,23,0.00,40.00,15,7,23,0.01
2012-9-18,69.0,55.2,40.0,29.0,23.2,18.0,53,31,16,0.00,40.00,14,8,23,0.01
2012-9-19,73.0,58.0,43.0,28.0,20.8,14.0,41,25,11,0.00,40.00,12,7,24,0.00
2012-9-20,75.0,59.1,43.0,26.0,18.6,15.0,35,22,11,0.00,40.00,10,7,19,0.00
2012-9-21,76.0,60.2,45.0,29.0,20.4,16.0,35,23,12,0.00,40.00,10,8,17,0.00
2012-9-22,75.0,61.3,46.0,28.0,20.1,15.0,35,22,13,0.00,40.00,17,8,25,0.00
2012-9-23,68.0,57.4,47.0,32.0,24.5,18.0,38,28,19,0.00,40.00,15,9,31,0.00
2012-9-24,64.0,50.8,42.0,46.0,39.3,31.0,98,69,35,0.00,40.00,18,9,35,0.53
2012-9-25,60.0,46.4,41.0,44.0,40.3,37.0,98,81,49,0.00,40.00,13,5,23,0.08
2012-9-26,52.0,43.3,36.0,41.0,37.9,33.0,95,82,58,0.00,40.00,13,4,22,0.01
2012-9-27,59.0,46.5,40.0,42.0,37.5,33.0,95,73,40,0.00,40.00,9,4,16,0.01
2012-9-28,66.0,50.2,38.0,37.0,32.0,26.0,82,54,25,0.00,40.00,13,7,17,0.00
2012-9-29,68.0,53.5,40.0,34.0,29.0,24.0,65,42,19,0.00,40.00,13,8,22,0.00
2012-9-30,66.0,54.6,43.0,33.0,28.4,24.0,56,38,25,0.00,40.00,10,6,20,0.00
2012-10-1,67.0,54.8,44.0,32.0,26.6,23.0,50,35,23,0.00,40.00,11,7,19,0.00
2012-10-2,72.0,55.5,41.0,29.0,24.1,19.0,50,32,16,0.00,40.00,13,8,20,0.00
2012-10-3,69.0,56.9,45.0,26.0,19.6,12.0,39,25,14,0.00,40.00,17,10,32,0.00
2012-10-4,66.0,54.6,45.0,26.0,17.1,10.0,35,23,16,0.00,40.00,20,9,40,0.00
2012-10-5,60.0,50.8,44.0,33.0,14.2,6.0,57,25,12,0.00,40.00,20,14,36,0.00
2012-10-6,49.0,38.4,31.0,7.0,3.4,-5.0,32,23,10,0.00,40.00,16,10,28,0.00
2012-10-7,51.0,36.9,28.0,7.0,2.4,-4.0,32,24,11,0.00,40.00,13,7,23,0.00
2012-10-8,61.0,42.0,30.0,7.0,1.6,-10.0,28,20,6,0.00,40.00,19,9,33,0.00
2012-10-9,64.0,52.6,40.0,17.0,13.4,7.0,29,21,15,0.00,40.00,17,9,34,0.00
2012-10-10,67.0,52.0,39.0,26.0,20.6,14.0,38,29,21,0.00,40.00,14,8,24,0.00
2012-10-11,69.0,54.2,44.0,25.0,22.4,17.0,41,30,14,0.00,40.00,12,8,29,0.00
2012-10-12,56.0,46.8,36.0,43.0,33.2,24.0,98,63,33,0.00,40.00,15,8,35,0.28
2012-10-13,38.0,34.7,32.0,38.0,32.8,26.0,99,93,67,0.00,40.00,10,6,20,0.17
2012-10-14,54.0,41.2,35.0,39.0,34.8,30.0,99,80,49,0.00,40.00,10,5,17,0.03
2012-10-15,60.0,45.2,33.0,33.0,28.2,25.0,77,54,31,0.00,40.00,13,8,23,0.00
2012-10-16,63.0,50.2,38.0,38.0,28.3,25.0,87,44,28,0.00,40.00,20,9,50,0.00
2012-10-17,48.0,40.0,32.0,38.0,9.7,-2.0,88,32,12,0.00,40.00,23,13,36,0.01
2012-10-18,53.0,41.3,31.0,13.0,8.0,3.0,34,26,19,0.00,40.00,13,8,24,0.00
2012-10-19,59.0,45.4,33.0,22.0,16.3,12.0,51,32,17,0.00,40.00,15,10,31,0.00
2012-10-20,66.0,51.3,38.0,18.0,14.0,10.0,38,24,11,0.00,40.00,17,9,29,0.00
2012-10-21,64.0,54.0,44.0,27.0,19.2,10.0,41,26,17,0.00,40.00,17,9,31,0.00
2012-10-22,62.0,51.3,43.0,27.0,23.3,19.0,46,34,19,0.00,40.00,24,10,40,0.00
2012-10-23,58.0,52.6,48.0,27.0,20.6,12.0,40,29,18,0.00,40.00,24,15,45,0.00
2012-10-24,53.0,41.2,26.0,30.0,22.4,9.0,97,55,17,0.00,40.00,24,13,50,0.00
2012-10-25,31.0,23.9,19.0,26.0,21.2,16.0,95,89,70,0.00,40.00,18,7,28,0.03
2012-10-26,35.0,22.9,16.0,17.0,13.4,10.0,89,69,41,0.00,40.00,8,4,13,0.01
2012-10-27,43.0,30.0,21.0,17.0,12.4,9.0,66,49,28,0.00,40.00,12,6,23,0.01
2012-10-28,50.0,38.6,28.0,24.0,19.3,14.0,59,46,32,0.00,40.00,11,6,19,0.00
2012-10-29,57.0,42.8,32.0,27.0,24.2,21.0,70,49,30,0.00,40.00,12,7,20,0.00
2012-10-30,56.0,44.8,33.0,27.0,21.9,19.0,63,42,25,0.00,40.00,12,8,18,0.00
2012-10-31,59.0,44.5,34.0,24.0,19.9,16.0,57,39,22,0.00,40.00,11,8,15,0.00
2012-11-1,61.0,46.7,37.0,20.0,16.6,10.0,47,32,13,0.00,40.00,14,6,27,0.00
2012-11-2,54.0,45.0,38.0,16.0,12.5,9.0,36,27,21,0.00,40.00,13,7,22,0.00
2012-11-3,53.0,38.9,30.0,18.0,8.6,-99.9,48,32,22,0.00,40.00,15,8,21,0.00
2012-11-4,52.0,40.3,31.0,21.0,17.3,13.0,49,40,28,0.00,40.00,12,7,23,0.00
2012-11-5,54.0,43.2,32.0,28.0,24.0,20.0,64,47,35,0.00,40.00,12,6,19,0.00
2012-11-6,58.0,44.2,34.0,25.0,20.7,16.0,63,42,21,0.00,40.00,12,8,16,0.00
2012-11-7,58.0,45.1,34.0,20.0,16.4,14.0,46,32,20,0.00,40.00,13,8,20,0.00
2012-11-8,61.0,46.1,37.0,18.0,12.3,6.0,39,27,11,0.00,40.00,16,10,34,0.00
2012-11-9,55.0,43.5,38.0,32.0,24.1,17.0,78,48,26,0.00,40.00,20,11,52,0.00
2012-11-10,39.0,24.6,16.0,30.0,19.8,12.0,96,82,54,0.00,40.00,20,10,36,0.06
2012-11-11,16.0,13.0,9.0,12.0,9.2,5.0,88,85,81,0.00,40.00,13,8,30,0.05
2012-11-12,27.0,16.4,6.0,18.0,8.4,0.0,83,71,55,0.00,40.00,15,6,19,0.17
2012-11-13,36.0,25.7,20.0,18.0,14.8,13.0,81,64,38,0.00,40.00,9,4,12,0.06
2012-11-14,40.0,29.6,20.0,19.0,14.9,11.0,71,55,38,0.00,40.00,12,6,17,0.01
2012-11-15,46.0,33.2,26.0,20.0,16.4,13.0,61,51,34,0.00,40.00,12,6,15,0.00
2012-11-16,47.0,35.9,25.0,20.0,14.6,9.0,54,42,27,0.00,40.00,12,5,21,0.00
2012-11-17,52.0,39.5,31.0,28.0,21.7,-99.9,86,59,31,0.00,40.00,12,6,25,0.00
2012-11-18,47.0,36.1,29.0,34.0,28.0,22.0,97,74,51,0.00,40.00,10,6,25,0.10
2012-11-19,48.0,36.8,29.0,30.0,24.0,19.0,90,60,42,0.00,40.00,10,6,19,0.10
2012-11-20,51.0,37.2,29.0,23.0,17.8,14.0,62,46,32,0.00,40.00,10,6,13,0.00
2012-11-21,54.0,41.0,33.0,16.0,12.3,8.0,46,32,17,0.00,40.00,10,6,24,0.00
2012-11-22,45.0,38.6,33.0,21.0,16.3,10.0,49,40,28,0.00,40.00,12,7,20,0.00
2012-11-23,46.0,35.5,27.0,20.0,15.9,12.0,62,46,30,0.00,40.00,9,6,15,0.00
2012-11-24,46.0,36.1,28.0,15.0,11.3,6.0,45,36,25,0.00,40.00,13,7,16,0.00
2012-11-25,48.0,36.2,29.0,16.0,10.7,6.0,44,35,22,0.00,40.00,13,8,21,0.00
2012-11-26,33.0,30.2,28.0,12.0,11.6,11.0,49,46,42,0.00,40.00,5,4,13,0.00
2012-11-27,46.0,32.5,23.0,11.0,4.4,-6.0,40,31,15,0.00,40.00,13,8,18,0.00
2012-11-28,50.0,34.4,26.0,13.0,6.2,0.0,37,31,20,0.00,40.00,12,7,23,0.00
2012-11-29,46.0,38.4,32.0,21.0,17.6,7.0,53,43,33,0.00,40.00,13,8,21,0.00
2012-11-30,49.0,40.1,29.0,21.0,17.3,16.0,59,41,29,0.00,40.00,19,8,33,0.00
2012-12-1,52.0,41.5,36.0,24.0,22.3,18.0,55,47,33,0.00,40.00,12,8,36,0.00
2012-12-2,50.0,39.0,31.0,25.0,16.4,6.0,56,41,16,0.00,40.00,19,7,39,0.00
2012-12-3,41.0,33.2,27.0,34.0,24.1,14.0,97,71,46,0.00,40.00,18,8,33,0.13
2012-12-4,41.0,29.9,21.0,18.0,12.6,8.0,71,50,31,0.00,40.00,11,6,17,0.05
2012-12-5,45.0,35.7,28.0,25.0,19.1,11.0,64,51,41,0.00,40.00,12,8,19,0.00
2012-12-6,37.0,33.5,31.0,32.0,27.7,24.0,94,80,62,0.00,40.00,9,5,15,0.00
2012-12-7,37.0,30.8,25.0,27.0,21.9,13.0,87,70,42,0.00,40.00,12,7,22,0.01
2012-12-8,33.0,29.2,25.0,19.0,15.6,11.0,76,57,40,0.00,40.00,16,10,37,0.01
2012-12-9,15.0,8.7,1.0,12.0,4.2,-5.0,87,81,76,0.00,40.00,18,9,24,0.00
2012-12-10,15.0,8.6,-1.0,10.0,4.2,-7.0,84,82,75,0.00,40.00,11,5,14,0.00
2012-12-11,23.0,13.6,9.0,19.0,9.9,5.0,87,85,83,0.00,40.00,12,6,15,0.10
2012-12-12,40.0,26.5,12.0,25.0,13.0,8.0,84,60,35,0.00,40.00,13,8,27,0.01
2012-12-13,46.0,34.1,28.0,13.0,9.7,6.0,46,36,24,0.00,40.00,11,5,17,0.01
2012-12-14,34.0,28.6,25.0,25.0,16.0,8.0,95,62,42,0.00,40.00,13,7,23,0.00
2012-12-15,31.0,24.5,21.0,24.0,21.3,11.0,94,88,45,0.00,40.00,12,5,23,0.01
2012-12-16,22.0,19.3,17.0,19.0,16.0,12.0,91,86,73,0.00,40.00,14,6,24,0.01
2012-12-17,27.0,20.6,16.0,20.0,16.1,12.0,93,83,66,0.00,40.00,13,8,30,0.00
2012-12-18,34.0,29.0,25.0,21.0,16.2,14.0,86,59,43,0.00,40.00,16,10,34,0.06
2012-12-19,25.0,11.0,0.0,24.0,7.1,-8.0,94,85,76,0.00,40.00,17,9,31,0.02
2012-12-20,20.0,7.0,-4.0,11.0,-1.2,-12.0,75,68,61,0.00,40.00,13,7,19,0.07
2012-12-21,36.0,21.6,12.0,15.0,8.8,5.0,74,59,36,0.00,40.00,10,6,16,0.06
2012-12-22,40.0,24.8,17.0,12.0,4.3,-4.0,64,43,23,0.00,40.00,11,6,17,0.01
2012-12-23,32.0,27.6,24.0,18.0,11.9,-4.0,69,53,26,0.00,40.00,16,6,24,0.01
2012-12-24,29.0,24.8,21.0,23.0,17.5,10.0,94,75,47,0.00,40.00,10,5,18,0.00
2012-12-25,21.0,15.7,10.0,19.0,11.0,5.0,91,82,71,0.00,40.00,8,5,12,0.07
2012-12-26,32.0,17.5,8.0,15.0,8.8,3.0,91,70,45,0.00,40.00,13,7,24,0.01
2012-12-27,20.0,16.3,12.0,17.0,13.3,7.0,89,88,86,0.00,40.00,13,8,22,0.00
2012-12-28,21.0,10.1,4.0,16.0,5.3,-3.0,85,81,74,0.00,40.00,10,6,15,0.09
2012-12-29,18.0,9.3,1.0,6.0,-0.4,-7.0,74,65,57,0.00,40.00,12,5,17,0.01
2012-12-30,28.0,18.5,9.0,14.0,6.8,1.0,80,61,41,0.00,40.00,10,5,12,0.00
2012-12-31,19.0,14.0,9.0,13.0,5.4,-99.9,87,79,75,0.00,40.00,13,6,18,0.00
2013-1-1,15.0,8.2,4.0,8.0,2.6,-1.0,83,78,72,0.00,40.00,10,4,14,0.03